Time,TemperatureF,DewpointF,PressureIn,WindDirection,WindDirectionDegrees,WindSpeedMPH,WindSpeedGustMPH,Humidity,HourlyPrecipIn,Conditions,Clouds,dailyrainin,SoftwareType,DateUTC
2013-08-29 00:07:00,76.8,66.0,30.04,SE,130,0.0,-999.0,70,-99.99,,,0.00,weatherlink.com 1.10,2013-08-29 06:07:00,
2013-08-29 00:22:00,76.6,67.0,30.05,SE,130,0.0,-999.0,72,-99.99,,,0.00,weatherlink.com 1.10,2013-08-29 06:22:00,
2013-08-29 00:37:00,76.0,67.0,30.04,SE,130,0.0,-999.0,73,-99.99,,,0.00,weatherlink.com 1.10,2013-08-29 06:37:00,
2013-08-29 00:52:00,75.5,67.0,30.04,SE,130,0.0,-999.0,74,-99.99,,,0.00,weatherlink.com 1.10,2013-08-29 06:52:00,
2013-08-29 01:07:00,75.1,67.0,30.04,SE,130,0.0,-999.0,75,-99.99,,,0.00,weatherlink.com 1.10,2013-08-29 07:07:00,
2013-08-29 01:22:00,74.8,67.0,30.04,SE,131,0.0,-999.0,77,-99.99,,,0.00,weatherlink.com 1.10,2013-08-29 07:22:00,
2013-08-29 01:37:00,74.4,68.0,30.05,SE,131,0.0,-999.0,79,-99.99,,,0.00,weatherlink.com 1.10,2013-08-29 07:37:00,
2013-08-29 01:52:00,74.2,67.0,30.04,SE,131,0.0,-999.0,79,-99.99,,,0.00,weatherlink.com 1.10,2013-08-29 07:52:00,
2013-08-29 02:07:00,73.8,68.0,30.05,SE,131,0.0,-999.0,81,-99.99,,,0.00,weatherlink.com 1.10,2013-08-29 08:07:00,
2013-08-29 02:22:00,73.5,67.0,30.05,SE,131,0.0,-999.0,81,-99.99,,,0.00,weatherlink.com 1.10,2013-08-29 08:22:00,
2013-08-29 02:37:00,73.2,67.0,30.05,SE,131,0.0,-999.0,82,-99.99,,,0.00,weatherlink.com 1.10,2013-08-29 08:37:00,
2013-08-29 02:52:00,72.8,67.0,30.05,SE,131,0.0,-999.0,83,-99.99,,,0.00,weatherlink.com 1.10,2013-08-29 08:52:00,
2013-08-29 03:07:00,72.4,67.0,30.05,SE,131,0.0,-999.0,83,-99.99,,,0.00,weatherlink.com 1.10,2013-08-29 09:07:00,
2013-08-29 03:22:00,72.1,67.0,30.05,SE,131,0.0,-999.0,84,-99.99,,,0.00,weatherlink.com 1.10,2013-08-29 09:22:00,
2013-08-29 03:37:00,71.7,67.0,30.05,SE,131,0.0,-999.0,85,-99.99,,,0.00,weatherlink.com 1.10,2013-08-29 09:37:00,
2013-08-29 03:52:00,71.3,67.0,30.05,SE,131,0.0,-999.0,85,-99.99,,,0.00,weatherlink.com 1.10,2013-08-29 09:52:00,
2013-08-29 04:07:00,71.1,67.0,30.05,SE,131,0.0,-999.0,86,-99.99,,,0.00,weatherlink.com 1.10,2013-08-29 10:07:00,
2013-08-29 04:22:00,71.1,67.0,30.05,SE,131,0.0,-999.0,86,-99.99,,,0.00,weatherlink.com 1.10,2013-08-29 10:22:00,
2013-08-29 04:37:00,71.2,67.0,30.06,SE,131,0.0,-999.0,87,-99.99,,,0.00,weatherlink.com 1.10,2013-08-29 10:37:00,
2013-08-29 04:52:00,71.3,67.0,30.06,SE,131,0.0,-999.0,87,-99.99,,,0.00,weatherlink.com 1.10,2013-08-29 10:52:00,
2013-08-29 05:07:00,71.3,67.0,30.07,SE,131,0.0,-999.0,87,-99.99,,,0.00,weatherlink.com 1.10,2013-08-29 11:07:00,
2013-08-29 05:22:00,71.3,67.0,30.06,SE,131,0.0,-999.0,87,-99.99,,,0.00,weatherlink.com 1.10,2013-08-29 11:22:00,
2013-08-29 05:37:00,71.3,67.0,30.06,SE,131,0.0,-999.0,87,-99.99,,,0.00,weatherlink.com 1.10,2013-08-29 11:37:00,
2013-08-29 05:52:00,71.3,67.0,30.07,SE,131,0.0,-999.0,87,-99.99,,,0.00,weatherlink.com 1.10,2013-08-29 11:52:00,
2013-08-29 06:07:00,71.2,68.0,30.06,SE,131,0.0,-999.0,88,-99.99,,,0.00,weatherlink.com 1.10,2013-08-29 12:07:00,
2013-08-29 06:22:00,71.0,67.0,30.07,SE,131,0.0,-999.0,88,-99.99,,,0.00,weatherlink.com 1.10,2013-08-29 12:22:00,
2013-08-29 06:37:00,70.9,67.0,30.07,SE,131,0.0,-999.0,88,-99.99,,,0.00,weatherlink.com 1.10,2013-08-29 12:37:00,
2013-08-29 06:52:00,71.3,68.0,30.07,SE,131,0.0,-999.0,89,-99.99,,,0.00,weatherlink.com 1.10,2013-08-29 12:52:00,
2013-08-29 07:07:00,72.2,69.0,30.08,SE,131,0.0,-999.0,89,-99.99,,,0.00,weatherlink.com 1.10,2013-08-29 13:07:00,
2013-08-29 07:22:00,73.5,70.0,30.08,SE,131,0.0,-999.0,88,-99.99,,,0.00,weatherlink.com 1.10,2013-08-29 13:22:00,
2013-08-29 07:37:00,75.4,71.0,30.08,SSW,194,0.0,-999.0,85,-99.99,,,0.00,weatherlink.com 1.10,2013-08-29 13:37:00,
2013-08-29 07:52:00,76.6,70.0,30.09,SW,217,0.0,-999.0,79,-99.99,,,0.00,weatherlink.com 1.10,2013-08-29 13:52:00,
2013-08-29 08:07:00,77.6,70.0,30.09,WSW,241,0.0,-999.0,76,-99.99,,,0.00,weatherlink.com 1.10,2013-08-29 14:07:00,
2013-08-29 08:22:00,78.4,69.0,30.09,SSW,212,1.0,-999.0,73,-99.99,,,0.00,weatherlink.com 1.10,2013-08-29 14:22:00,
2013-08-29 08:37:00,79.2,69.0,30.09,WSW,237,0.0,-999.0,71,-99.99,,,0.00,weatherlink.com 1.10,2013-08-29 14:37:00,
2013-08-29 08:52:00,80.0,68.0,30.09,WSW,240,0.0,-999.0,67,-99.99,,,0.00,weatherlink.com 1.10,2013-08-29 14:52:00,
2013-08-29 09:07:00,81.1,69.0,30.09,SW,227,0.0,-999.0,67,-99.99,,,0.00,weatherlink.com 1.10,2013-08-29 15:07:00,
2013-08-29 09:22:00,82.5,69.0,30.08,SSW,195,0.0,-999.0,63,-99.99,,,0.00,weatherlink.com 1.10,2013-08-29 15:22:00,
2013-08-29 09:37:00,83.6,68.0,30.09,SW,217,0.0,-999.0,59,-99.99,,,0.00,weatherlink.com 1.10,2013-08-29 15:37:00,
2013-08-29 09:52:00,85.2,68.0,30.09,SSW,209,0.0,-999.0,56,-99.99,,,0.00,weatherlink.com 1.10,2013-08-29 15:52:00,
2013-08-29 10:07:00,87.3,66.0,30.09,SE,126,3.0,-999.0,50,-99.99,,,0.00,weatherlink.com 1.10,2013-08-29 16:07:00,
2013-08-29 10:22:00,88.5,67.0,30.09,WSW,252,0.0,-999.0,49,-99.99,,,0.00,weatherlink.com 1.10,2013-08-29 16:22:00,
2013-08-29 10:37:00,88.7,65.0,30.08,SE,140,1.0,-999.0,46,-99.99,,,0.00,weatherlink.com 1.10,2013-08-29 16:37:00,
2013-08-29 10:52:00,89.8,65.0,30.07,ESE,104,1.0,-999.0,44,-99.99,,,0.00,weatherlink.com 1.10,2013-08-29 16:52:00,
2013-08-29 11:07:00,89.4,65.0,30.07,ESE,104,0.0,-999.0,44,-99.99,,,0.00,weatherlink.com 1.10,2013-08-29 17:07:00,
2013-08-29 11:22:00,90.6,66.0,30.07,ESE,104,0.0,-999.0,44,-99.99,,,0.00,weatherlink.com 1.10,2013-08-29 17:22:00,
2013-08-29 11:37:00,90.0,64.0,30.07,North,357,0.0,-999.0,42,-99.99,,,0.00,weatherlink.com 1.10,2013-08-29 17:37:00,
2013-08-29 11:52:00,89.7,64.0,30.06,East,85,0.0,-999.0,43,-99.99,,,0.00,weatherlink.com 1.10,2013-08-29 17:52:00,
2013-08-29 12:07:00,91.0,64.0,30.06,WSW,237,0.0,-999.0,41,-99.99,,,0.00,weatherlink.com 1.10,2013-08-29 18:07:00,
2013-08-29 12:22:00,91.6,65.0,30.05,SSE,148,1.0,-999.0,41,-99.99,,,0.00,weatherlink.com 1.10,2013-08-29 18:22:00,
2013-08-29 12:37:00,92.0,63.0,30.04,SE,133,0.0,-999.0,38,-99.99,,,0.00,weatherlink.com 1.10,2013-08-29 18:37:00,
2013-08-29 12:52:00,92.6,66.0,30.03,SE,134,0.0,-999.0,42,-99.99,,,0.00,weatherlink.com 1.10,2013-08-29 18:52:00,
2013-08-29 13:07:00,92.7,63.0,30.03,SW,234,0.0,-999.0,37,-99.99,,,0.00,weatherlink.com 1.10,2013-08-29 19:07:00,
2013-08-29 13:22:00,92.4,62.0,30.02,ESE,121,0.0,-999.0,36,-99.99,,,0.00,weatherlink.com 1.10,2013-08-29 19:22:00,
2013-08-29 13:37:00,91.4,62.0,30.02,ESE,121,2.0,-999.0,37,-99.99,,,0.00,weatherlink.com 1.10,2013-08-29 19:37:00,
2013-08-29 13:52:00,93.3,63.0,30.01,WSW,239,0.0,-999.0,36,-99.99,,,0.00,weatherlink.com 1.10,2013-08-29 19:52:00,
2013-08-29 14:07:00,95.7,65.0,30.00,WSW,243,0.0,-999.0,36,-99.99,,,0.00,weatherlink.com 1.10,2013-08-29 20:07:00,
2013-08-29 14:22:00,94.3,63.0,30.00,SE,140,0.0,-999.0,36,-99.99,,,0.00,weatherlink.com 1.10,2013-08-29 20:22:00,
2013-08-29 14:37:00,94.7,64.0,29.99,NE,40,1.0,-999.0,36,-99.99,,,0.00,weatherlink.com 1.10,2013-08-29 20:37:00,
2013-08-29 14:52:00,95.0,63.0,29.99,SW,227,0.0,-999.0,34,-99.99,,,0.00,weatherlink.com 1.10,2013-08-29 20:52:00,
2013-08-29 15:07:00,94.1,63.0,29.98,ESE,109,0.0,-999.0,35,-99.99,,,0.00,weatherlink.com 1.10,2013-08-29 21:07:00,
2013-08-29 15:22:00,95.6,64.0,29.97,SSW,199,0.0,-999.0,35,-99.99,,,0.00,weatherlink.com 1.10,2013-08-29 21:22:00,
2013-08-29 15:37:00,95.3,63.0,29.96,ESE,104,0.0,-999.0,34,-99.99,,,0.00,weatherlink.com 1.10,2013-08-29 21:37:00,
2013-08-29 15:52:00,96.9,63.0,29.96,ESE,114,0.0,-999.0,32,-99.99,,,0.00,weatherlink.com 1.10,2013-08-29 21:52:00,
2013-08-29 16:07:00,96.1,62.0,29.95,SSW,205,0.0,-999.0,32,-99.99,,,0.00,weatherlink.com 1.10,2013-08-29 22:07:00,
2013-08-29 16:22:00,95.3,63.0,29.95,NW,322,0.0,-999.0,34,-99.99,,,0.00,weatherlink.com 1.10,2013-08-29 22:22:00,
2013-08-29 16:37:00,94.9,62.0,29.95,ENE,71,3.0,-999.0,34,-99.99,,,0.00,weatherlink.com 1.10,2013-08-29 22:37:00,
2013-08-29 16:52:00,94.2,63.0,29.95,ESE,109,1.0,-999.0,36,-99.99,,,0.00,weatherlink.com 1.10,2013-08-29 22:52:00,
2013-08-29 17:23:00,94.0,62.0,29.95,SE,125,0.0,-999.0,34,-99.99,,,0.00,weatherlink.com 1.10,2013-08-29 23:23:00,
2013-08-29 17:38:00,93.8,63.0,29.95,SE,125,0.0,-999.0,36,-99.99,,,0.00,weatherlink.com 1.10,2013-08-29 23:38:00,
2013-08-29 17:53:00,93.5,62.0,29.95,ESE,123,0.0,-999.0,35,-99.99,,,0.00,weatherlink.com 1.10,2013-08-29 23:53:00,
2013-08-29 18:08:00,92.6,62.0,29.95,ESE,123,0.0,-999.0,36,-99.99,,,0.00,weatherlink.com 1.10,2013-08-30 00:08:00,
2013-08-29 18:23:00,91.8,62.0,29.95,ESE,123,1.0,-999.0,37,-99.99,,,0.00,weatherlink.com 1.10,2013-08-30 00:23:00,
2013-08-29 18:38:00,90.9,62.0,29.95,ESE,123,2.0,-999.0,38,-99.99,,,0.00,weatherlink.com 1.10,2013-08-30 00:38:00,
2013-08-29 18:53:00,89.9,63.0,29.96,ESE,123,0.0,-999.0,40,-99.99,,,0.00,weatherlink.com 1.10,2013-08-30 00:53:00,
2013-08-29 19:08:00,88.4,62.0,29.96,ESE,123,0.0,-999.0,41,-99.99,,,0.00,weatherlink.com 1.10,2013-08-30 01:08:00,
2013-08-29 19:23:00,86.6,63.0,29.96,ESE,123,0.0,-999.0,45,-99.99,,,0.00,weatherlink.com 1.10,2013-08-30 01:23:00,
2013-08-29 19:38:00,85.3,63.0,29.97,ESE,123,0.0,-999.0,48,-99.99,,,0.00,weatherlink.com 1.10,2013-08-30 01:38:00,
2013-08-29 19:53:00,83.9,64.0,29.97,ESE,123,0.0,-999.0,51,-99.99,,,0.00,weatherlink.com 1.10,2013-08-30 01:53:00,
2013-08-29 20:08:00,82.7,64.0,29.97,ESE,123,0.0,-999.0,53,-99.99,,,0.00,weatherlink.com 1.10,2013-08-30 02:08:00,
2013-08-29 20:23:00,81.9,65.0,29.97,ESE,123,0.0,-999.0,57,-99.99,,,0.00,weatherlink.com 1.10,2013-08-30 02:23:00,
2013-08-29 20:38:00,81.0,64.0,29.97,ESE,123,0.0,-999.0,57,-99.99,,,0.00,weatherlink.com 1.10,2013-08-30 02:38:00,
2013-08-29 20:53:00,80.4,65.0,29.98,ESE,123,0.0,-999.0,60,-99.99,,,0.00,weatherlink.com 1.10,2013-08-30 02:53:00,
2013-08-29 21:08:00,79.8,65.0,29.98,ESE,123,0.0,-999.0,60,-99.99,,,0.00,weatherlink.com 1.10,2013-08-30 03:08:00,
2013-08-29 21:23:00,78.8,64.0,29.98,ESE,123,0.0,-999.0,60,-99.99,,,0.00,weatherlink.com 1.10,2013-08-30 03:23:00,
2013-08-29 21:38:00,78.2,64.0,29.98,ESE,123,0.0,-999.0,62,-99.99,,,0.00,weatherlink.com 1.10,2013-08-30 03:38:00,
2013-08-29 21:53:00,77.6,64.0,29.98,ESE,123,0.0,-999.0,64,-99.99,,,0.00,weatherlink.com 1.10,2013-08-30 03:53:00,
2013-08-29 22:08:00,76.8,64.0,29.98,ESE,123,0.0,-999.0,64,-99.99,,,0.00,weatherlink.com 1.10,2013-08-30 04:08:00,
2013-08-29 22:23:00,76.3,64.0,29.99,ESE,123,0.0,-999.0,65,-99.99,,,0.00,weatherlink.com 1.10,2013-08-30 04:23:00,
2013-08-29 22:38:00,75.8,63.0,29.99,ESE,123,0.0,-999.0,65,-99.99,,,0.00,weatherlink.com 1.10,2013-08-30 04:38:00,
2013-08-29 22:53:00,75.3,64.0,29.99,ESE,123,0.0,-999.0,67,-99.99,,,0.00,weatherlink.com 1.10,2013-08-30 04:53:00,
2013-08-29 23:08:00,74.7,63.0,29.99,ESE,123,0.0,-999.0,68,-99.99,,,0.00,weatherlink.com 1.10,2013-08-30 05:08:00,
2013-08-29 23:23:00,74.3,63.0,29.98,ESE,123,0.0,-999.0,69,-99.99,,,0.00,weatherlink.com 1.10,2013-08-30 05:23:00,
2013-08-29 23:38:00,74.0,63.0,29.99,ESE,123,0.0,-999.0,69,-99.99,,,0.00,weatherlink.com 1.10,2013-08-30 05:38:00,
2013-08-29 23:53:00,73.5,63.0,29.99,ESE,123,0.0,-999.0,70,-99.99,,,0.00,weatherlink.com 1.10,2013-08-30 05:53:00,